GW4165 Weather Reports


time (UTC)temp
C
wind
direction
speed
KPH
gust
KPH
rain 1hr
cm
rain 24hr
cm
rain mn
cm
humidity
%
barometer
mb
20260906191647 22 327 0.0 0.0 0.00 0.00 0.00 63 1021.6
20260906191146 22 323 0.0 0.0 0.00 0.00 0.00 62 1021.8
20260906190640 22 334 0.0 0.0 0.00 0.00 0.00 62 1021.7
20260906190135 22 317 0.0 0.0 0.00 0.00 0.00 62 1022.0
20260906185634 22 334 0.0 0.0 0.00 0.00 0.00 62 1021.8
20260906185133 22 3 0.0 0.0 0.00 0.00 0.00 62 1021.9
20260906184628 22 327 0.0 0.0 0.00 0.00 0.00 65 1022.0
20260906184124 22 322 0.0 0.0 0.00 0.00 0.00 64 1022.1
20260906183620 22 330 0.0 0.0 0.00 0.00 0.00 63 1022.0
20260906183115 22 329 0.0 0.0 0.00 0.00 0.00 65 1022.1
20260906182610 22 310 0.0 0.0 0.00 0.00 0.00 66 1022.0
20260906182106 22 342 0.0 1.6 0.00 0.00 0.00 65 1022.1
20260906181601 22 337 0.0 0.0 0.00 0.00 0.00 65 1022.1
20260906181052 22 9 0.0 0.0 0.00 0.00 0.00 64 1022.0
20260906180551 22 324 0.0 0.0 0.00 0.00 0.00 65 1022.3
20260906180050 22 330 0.0 0.0 0.00 0.00 0.00 64 1022.1
20260906175549 22 356 0.0 1.6 0.00 0.00 0.00 64 1022.1
20260906175044 22 323 0.0 0.0 0.00 0.00 0.00 62 1022.2
20260906174542 22 331 0.0 0.0 0.00 0.00 0.00 61 1022.0
20260906174037 22 328 0.0 0.0 0.00 0.00 0.00 63 1022.2
20260906173532 22 337 0.0 0.0 0.00 0.00 0.00 62 1022.2
20260906173029 22 326 1.6 1.6 0.00 0.00 0.00 61 1022.3
20260906172522 22 325 0.0 0.0 0.00 0.00 0.00 62 1022.3
20260906172018 22 351 0.0 1.6 0.00 0.00 0.00 58 1022.2
20260906171512 22 338 0.0 0.0 0.00 0.00 0.00 57 1022.1
20260906171008 21 337 0.0 0.0 0.00 0.00 0.00 57 1022.3
20260906170504 22 336 0.0 0.0 0.00 0.00 0.00 58 1022.3
20260906170001 22 329 0.0 0.0 0.00 0.00 0.00 60 1022.1
20260906165459 22 350 1.6 1.6 0.00 0.00 0.00 60 1022.1
20260906164955 22 354 0.0 0.0 0.00 0.00 0.00 60 1022.3
20260906164453 22 335 0.0 0.0 0.00 0.00 0.00 60 1022.2
20260906163950 21 41 0.0 0.0 0.00 0.00 0.00 60 1022.2
20260906163446 21 330 0.0 1.6 0.00 0.00 0.00 61 1022.3
20260906162944 21 347 0.0 1.6 0.00 0.00 0.00 61 1022.3
20260906162443 21 335 0.0 0.0 0.00 0.00 0.00 62 1022.1
20260906161938 21 0 1.6 1.6 0.00 0.00 0.00 61 1022.2
20260906161437 21 340 0.0 0.0 0.00 0.00 0.00 64 1022.4
20260906160937 21 332 0.0 0.0 0.00 0.00 0.00 68 1022.4
20260906160430 21 337 0.0 0.0 0.00 0.00 0.00 69 1022.4
20260906155929 21 329 0.0 0.0 0.00 0.00 0.00 70 1022.3
20260906155427 21 338 0.0 0.0 0.00 0.00 0.00 69 1022.3
20260906154924 21 330 0.0 0.0 0.00 0.00 0.00 70 1022.5
20260906154419 21 332 0.0 0.0 0.00 0.00 0.00 71 1022.2
20260906153918 21 331 0.0 0.0 0.00 0.00 0.00 72 1022.2
20260906153416 21 350 0.0 0.0 0.00 0.00 0.00 71 1022.2
20260906152912 21 334 0.0 0.0 0.00 0.00 0.00 71 1022.4
20260906152407 21 341 0.0 0.0 0.00 0.00 0.00 70 1022.5
20260906151906 21 336 0.0 0.0 0.00 0.00 0.00 71 1022.5
20260906151356 21 330 0.0 0.0 0.00 0.00 0.00 73 1022.6
20260906150851 20 334 0.0 0.0 0.00 0.00 0.00 76 1022.6
20260906150347 20 328 0.0 0.0 0.00 0.00 0.00 75 1022.5
20260906145846 20 332 0.0 0.0 0.00 0.00 0.00 74 1022.5
20260906145345 20 331 0.0 0.0 0.00 0.00 0.00 77 1022.6
20260906144840 20 321 0.0 0.0 0.00 0.00 0.00 80 1022.5
20260906144334 20 318 0.0 0.0 0.00 0.00 0.00 76 1022.7
20260906143834 20 319 0.0 0.0 0.00 0.00 0.00 76 1022.5
20260906143325 19 329 0.0 0.0 0.00 0.00 0.00 68 1022.5
20260906142821 18 314 0.0 0.0 0.00 0.00 0.00 79 1022.2
20260906142321 18 314 0.0 0.0 0.00 0.00 0.00 79 1022.4
20260906141820 18 314 0.0 0.0 0.00 0.00 0.00 80 1022.4
20260906141315 18 324 0.0 0.0 0.00 0.00 0.00 78 1022.6
20260906140814 18 313 0.0 0.0 0.00 0.00 0.00 83 1022.3
20260906140309 17 329 0.0 0.0 0.00 0.00 0.00 85 1022.4
20260906135807 17 329 0.0 0.0 0.00 0.00 0.00 85 1022.3
20260906135305 16 329 0.0 0.0 0.00 0.00 0.00 91 1022.4
20260906134757 15 329 0.0 0.0 0.00 0.00 0.00 96 1022.4
20260906134252 15 318 0.0 0.0 0.00 0.00 0.00 97 1022.4
20260906133748 15 318 0.0 0.0 0.00 0.00 0.00 97 1022.3
20260906133243 15 318 0.0 0.0 0.00 0.00 0.00 98 1022.3
20260906132738 14 318 0.0 0.0 0.00 0.00 0.00 98 1022.4
20260906132228 14 318 0.0 0.0 0.00 0.00 0.00 98 1022.2
20260906131724 13 318 0.0 0.0 0.00 0.00 0.00 98 1022.2
20260906131218 13 318 0.0 0.0 0.00 0.00 0.00 98 1022.5
20260906130713 13 318 0.0 0.0 0.00 0.00 0.00 98 1022.5
20260906130203 13 318 0.0 0.0 0.00 0.00 0.00 98 1022.3
20260906125701 13 318 0.0 0.0 0.00 0.00 0.00 98 1022.4
20260906125200 12 318 0.0 0.0 0.00 0.00 0.00 98 1022.4
20260906124655 12 318 0.0 0.0 0.00 0.00 0.00 98 1022.5
20260906124151 12 318 0.0 0.0 0.00 0.00 0.00 98 1022.5
20260906123649 12 318 0.0 0.0 0.00 0.00 0.00 98 1022.3
20260906123145 12 318 0.0 0.0 0.00 0.00 0.00 98 1022.4
20260906122644 11 318 0.0 0.0 0.00 0.00 0.00 98 1022.2
20260906122140 11 318 0.0 0.0 0.00 0.00 0.00 98 1022.4
20260906121636 11 318 0.0 0.0 0.00 0.00 0.00 98 1022.2
20260906121132 11 318 0.0 0.0 0.00 0.00 0.00 98 1022.3
20260906120627 11 318 0.0 0.0 0.00 0.00 0.00 97 1022.3
20260906120125 11 318 0.0 0.0 0.00 0.00 0.00 97 1022.3
20260906115624 11 318 0.0 0.0 0.00 0.00 0.00 97 1022.1
20260906115120 11 318 0.0 0.0 0.00 0.00 0.00 97 1021.9
20260906114619 11 318 0.0 0.0 0.00 0.00 0.00 97 1022.1
20260906114114 11 318 0.0 0.0 0.00 0.00 0.00 97 1022.2
20260906113609 11 318 0.0 0.0 0.00 0.00 0.00 97 1022.0
20260906113103 11 318 0.0 0.0 0.00 0.00 0.00 97 1022.0
20260906112603 11 318 0.0 0.0 0.00 0.00 0.00 97 1021.7
20260906112059 11 318 0.0 0.0 0.00 0.00 0.00 97 1021.9
20260906111559 11 318 0.0 0.0 0.00 0.00 0.00 97 1021.9
20260906111055 11 318 0.0 0.0 0.00 0.00 0.00 97 1021.6
20260906110554 11 318 0.0 0.0 0.00 0.00 0.00 97 1021.7
20260906110054 11 318 0.0 0.0 0.00 0.00 0.00 97 1021.6
20260906105548 11 318 0.0 0.0 0.00 0.00 0.00 97 1021.7
20260906105045 11 318 0.0 0.0 0.00 0.00 0.00 97 1021.6
20260906104543 11 318 0.0 0.0 0.00 0.00 0.00 97 1021.6
20260906104038 11 318 0.0 0.0 0.00 0.00 0.00 97 1021.7
20260906103536 11 318 0.0 0.0 0.00 0.00 0.00 97 1021.8
20260906103031 11 318 0.0 0.0 0.00 0.00 0.00 97 1021.7
20260906102531 11 318 0.0 0.0 0.00 0.00 0.00 97 1021.8
20260906102027 11 318 0.0 0.0 0.00 0.00 0.00 97 1021.6
20260906101526 11 318 0.0 0.0 0.00 0.00 0.00 97 1021.8
20260906101021 11 318 0.0 0.0 0.00 0.00 0.00 97 1021.6
20260906100517 11 318 0.0 0.0 0.00 0.00 0.00 97 1021.5
20260906100012 11 318 0.0 0.0 0.00 0.00 0.00 97 1021.8
20260906095507 11 318 0.0 0.0 0.00 0.00 0.00 97 1021.7
20260906095002 11 318 0.0 0.0 0.00 0.00 0.00 97 1021.9
20260906094501 11 318 0.0 0.0 0.00 0.00 0.00 97 1021.8
20260906093957 11 318 0.0 0.0 0.00 0.00 0.00 97 1021.7
20260906093453 11 318 0.0 0.0 0.00 0.00 0.00 97 1021.8
20260906092953 11 318 0.0 0.0 0.00 0.00 0.00 97 1021.8
20260906092448 11 318 0.0 0.0 0.00 0.00 0.00 97 1021.8
20260906091943 11 318 0.0 0.0 0.00 0.00 0.00 97 1021.6
20260906091439 11 318 0.0 0.0 0.00 0.00 0.00 97 1021.9
20260906090935 11 318 0.0 0.0 0.00 0.00 0.00 97 1021.9
20260906090430 11 318 0.0 0.0 0.00 0.00 0.00 97 1021.9
20260906085924 11 318 0.0 0.0 0.00 0.00 0.00 97 1021.6
20260906085423 11 318 0.0 0.0 0.00 0.00 0.00 97 1021.7
20260906084923 11 318 0.0 0.0 0.00 0.00 0.00 97 1021.6
20260906084418 11 318 0.0 0.0 0.00 0.00 0.00 97 1021.6
20260906083917 11 318 0.0 0.0 0.00 0.00 0.00 97 1021.7
20260906083413 11 318 0.0 0.0 0.00 0.00 0.00 97 1021.8
20260906082912 11 318 0.0 0.0 0.00 0.00 0.00 97 1021.4
20260906082407 11 318 0.0 0.0 0.00 0.00 0.00 97 1021.5
20260906081903 11 318 0.0 0.0 0.00 0.00 0.00 97 1021.4
20260906081358 11 318 0.0 0.0 0.00 0.00 0.00 97 1021.4
20260906080854 11 318 0.0 0.0 0.00 0.00 0.00 97 1021.2
20260906080351 11 318 0.0 0.0 0.00 0.00 0.00 97 1021.1
20260906075849 11 318 0.0 0.0 0.00 0.00 0.00 97 1021.3
20260906075344 11 318 0.0 0.0 0.00 0.00 0.00 97 1021.6
20260906074840 11 318 0.0 0.0 0.00 0.00 0.00 97 1021.7
20260906074339 11 318 0.0 0.0 0.00 0.00 0.00 97 1021.7
20260906073838 11 318 0.0 0.0 0.00 0.00 0.00 97 1021.5
20260906073333 11 318 0.0 0.0 0.00 0.00 0.00 97 1021.6
20260906072830 11 318 0.0 0.0 0.00 0.00 0.00 97 1021.5
20260906072325 12 318 0.0 0.0 0.00 0.00 0.00 97 1021.5
20260906071821 12 318 0.0 0.0 0.00 0.00 0.00 97 1021.5
20260906071315 12 318 0.0 0.0 0.00 0.00 0.00 97 1021.4
20260906070813 12 318 0.0 0.0 0.00 0.00 0.00 97 1021.4
20260906070308 12 318 0.0 0.0 0.00 0.00 0.00 97 1021.4
20260906065807 12 318 0.0 0.0 0.00 0.00 0.00 97 1021.4
20260906065305 12 318 0.0 0.0 0.00 0.00 0.00 97 1021.5
20260906064758 12 318 0.0 0.0 0.00 0.00 0.00 97 1021.3
20260906064254 12 318 0.0 0.0 0.00 0.00 0.00 97 1021.2
20260906063749 12 318 0.0 0.0 0.00 0.00 0.00 97 1021.1
20260906063244 12 318 0.0 0.0 0.00 0.00 0.00 97 1021.3
20260906062739 12 318 0.0 0.0 0.00 0.00 0.00 97 1021.3
20260906062238 12 318 0.0 0.0 0.00 0.00 0.00 97 1021.3
20260906061734 12 318 0.0 0.0 0.00 0.00 0.00 97 1021.3
20260906061231 12 318 0.0 0.0 0.00 0.00 0.00 97 1021.2
20260906060726 12 318 0.0 0.0 0.00 0.00 0.00 97 1021.4
20260906060223 12 318 0.0 0.0 0.00 0.00 0.00 97 1021.3
20260906055719 12 318 0.0 0.0 0.00 0.00 0.00 97 1021.2
20260906055214 12 318 0.0 0.0 0.00 0.00 0.00 97 1021.0
20260906054710 12 318 0.0 0.0 0.00 0.00 0.00 97 1021.0
20260906054209 12 318 0.0 0.0 0.00 0.00 0.00 97 1021.0
20260906053706 12 318 0.0 0.0 0.00 0.00 0.00 97 1020.9
20260906053201 12 318 0.0 0.0 0.00 0.00 0.00 97 1020.9
20260906052656 12 318 0.0 0.0 0.00 0.00 0.00 97 1020.9
20260906052153 12 318 0.0 0.0 0.00 0.00 0.00 97 1020.8
20260906051649 12 318 0.0 0.0 0.00 0.00 0.00 97 1020.8
20260906051149 12 318 0.0 0.0 0.00 0.00 0.00 96 1020.7
20260906050644 12 318 0.0 0.0 0.00 0.00 0.00 96 1020.8
20260906050139 13 318 0.0 0.0 0.00 0.00 0.00 97 1020.7
20260906045638 13 318 0.0 0.0 0.00 0.00 0.00 96 1020.7
20260906045133 13 318 0.0 0.0 0.00 0.00 0.00 96 1020.7
20260906044629 13 318 0.0 0.0 0.00 0.00 0.00 96 1020.9
20260906044124 13 318 0.0 0.0 0.00 0.00 0.00 96 1020.9
20260906043621 13 318 0.0 0.0 0.00 0.00 0.00 96 1020.8
20260906043115 13 318 0.0 0.0 0.00 0.00 0.00 96 1020.9
20260906042614 13 318 0.0 0.0 0.00 0.00 0.00 96 1020.9
20260906042109 13 318 0.0 0.0 0.00 0.00 0.00 96 1020.7
20260906041606 13 318 0.0 0.0 0.00 0.00 0.00 96 1020.7
20260906041100 13 318 0.0 0.0 0.00 0.00 0.00 96 1020.7
20260906040556 13 318 0.0 0.0 0.00 0.00 0.00 96 1020.5
20260906040051 13 318 0.0 0.0 0.00 0.00 0.00 96 1020.4
20260906035546 13 318 0.0 0.0 0.00 0.00 0.00 96 1020.4
20260906035042 13 318 0.0 0.0 0.00 0.00 0.00 96 1020.5
20260906034542 13 318 0.0 0.0 0.00 0.00 0.00 96 1020.3
20260906034037 13 318 0.0 0.0 0.00 0.00 0.00 96 1020.3
20260906033532 14 318 0.0 0.0 0.00 0.00 0.00 96 1020.3
20260906033022 14 318 0.0 0.0 0.00 0.00 0.00 96 1020.3
20260906032518 14 318 0.0 0.0 0.00 0.00 0.00 96 1020.3
20260906032012 14 318 0.0 0.0 0.00 0.00 0.00 96 1020.1
20260906031508 14 318 0.0 0.0 0.00 0.00 0.00 96 1020.5
20260906031003 14 318 0.0 0.0 0.00 0.00 0.00 96 1020.2
20260906030457 15 318 0.0 0.0 0.00 0.00 0.00 96 1020.2
20260906025952 15 318 0.0 0.0 0.00 0.00 0.00 96 1020.4
20260906025451 15 318 0.0 0.0 0.00 0.00 0.00 96 1020.3
20260906024950 15 318 0.0 0.0 0.00 0.00 0.00 96 1020.1
20260906024445 15 318 0.0 0.0 0.00 0.00 0.00 96 1020.0
20260906023944 15 318 0.0 0.0 0.00 0.00 0.00 95 1019.9
20260906023441 15 318 0.0 0.0 0.00 0.00 0.00 95 1020.0
20260906022936 15 318 0.0 0.0 0.00 0.00 0.00 95 1019.9
20260906022432 15 318 0.0 0.0 0.00 0.00 0.00 95 1020.0
20260906021927 15 318 0.0 0.0 0.00 0.00 0.00 95 1020.1
20260906021426 15 318 0.0 0.0 0.00 0.00 0.00 95 1019.9
20260906020921 15 318 0.0 0.0 0.00 0.00 0.00 95 1020.0
20260906020415 15 318 0.0 0.0 0.00 0.00 0.00 95 1020.1
20260906015909 15 318 0.0 0.0 0.00 0.00 0.00 95 1020.1
20260906015409 15 318 0.0 0.0 0.00 0.00 0.00 95 1020.2
20260906014908 15 318 0.0 0.0 0.00 0.00 0.00 95 1020.0
20260906014403 15 318 0.0 0.0 0.00 0.00 0.00 95 1020.1
20260906013859 15 318 0.0 0.0 0.00 0.00 0.00 95 1020.0
20260906013355 16 318 0.0 0.0 0.00 0.00 0.00 94 1020.0
20260906012850 16 318 0.0 0.0 0.00 0.00 0.00 94 1020.0
20260906012345 16 318 0.0 0.0 0.00 0.00 0.00 94 1020.2
20260906011844 16 318 0.0 0.0 0.00 0.00 0.00 94 1020.0
20260906011339 16 318 0.0 0.0 0.00 0.00 0.00 94 1020.1
20260906010835 16 318 0.0 0.0 0.00 0.00 0.00 94 1020.2
20260906010331 16 318 0.0 0.0 0.00 0.00 0.00 93 1020.2
20260906005827 16 318 0.0 0.0 0.00 0.00 0.00 93 1020.1
20260906005326 16 318 0.0 0.0 0.00 0.00 0.00 93 1020.1
20260906004824 17 318 0.0 0.0 0.00 0.00 0.00 93 1020.2
20260906004324 17 318 0.0 0.0 0.00 0.00 0.00 92 1020.1
20260906003819 17 318 0.0 0.0 0.00 0.00 0.00 92 1020.3
20260906003315 17 318 0.0 0.0 0.00 0.00 0.00 91 1020.3
20260906002810 17 317 0.0 0.0 0.00 0.00 0.00 91 1020.0
20260906002309 17 318 0.0 0.0 0.00 0.00 0.00 90 1020.3
20260906001806 17 318 0.0 0.0 0.00 0.00 0.00 90 1020.2
20260906001301 18 318 0.0 0.0 0.00 0.00 0.00 90 1020.3
20260906000755 18 318 0.0 0.0 0.00 0.00 0.00 89 1020.3
20260906000250 18 318 0.0 0.0 0.00 0.00 0.00 89 1020.4
20260905235745 18 318 0.0 0.0 0.00 0.00 0.00 88 1019.9
20260905235244 18 318 0.0 0.0 0.00 0.00 0.00 87 1020.2
20260905234740 18 318 0.0 0.0 0.00 0.00 0.00 87 1020.1
20260905234235 18 313 0.0 0.0 0.00 0.00 0.00 86 1020.2
20260905233731 19 313 0.0 0.0 0.00 0.00 0.00 85 1020.4
20260905233230 19 314 0.0 0.0 0.00 0.00 0.00 84 1020.6
20260905232730 19 319 0.0 0.0 0.00 0.00 0.00 84 1020.4
20260905232226 19 323 1.6 1.6 0.00 0.00 0.00 83 1020.3
20260905231721 19 318 1.6 3.2 0.00 0.00 0.00 82 1020.3
20260905231217 20 317 1.6 1.6 0.00 0.00 0.00 82 1020.5
20260905230713 20 314 1.6 1.6 0.00 0.00 0.00 81 1020.5
20260905230210 20 314 1.6 1.6 0.00 0.00 0.00 80 1020.5
20260905225710 20 312 3.2 3.2 0.00 0.00 0.00 79 1020.4
20260905225206 20 313 1.6 3.2 0.00 0.00 0.00 78 1020.5
20260905224705 20 334 0.0 0.0 0.00 0.00 0.00 78 1020.4
20260905224200 20 336 0.0 0.0 0.00 0.00 0.00 78 1020.2
20260905223656 20 336 0.0 0.0 0.00 0.00 0.00 79 1020.3
20260905223153 20 330 0.0 0.0 0.00 0.00 0.00 79 1020.2
20260905222648 20 334 0.0 0.0 0.00 0.00 0.00 78 1020.3
20260905222148 20 329 0.0 0.0 0.00 0.00 0.00 77 1020.4
20260905221644 20 316 0.0 0.0 0.00 0.00 0.00 77 1020.4
20260905221141 20 318 1.6 3.2 0.00 0.00 0.00 77 1020.2
20260905220636 20 332 0.0 0.0 0.00 0.00 0.00 79 1020.2
20260905220132 20 334 0.0 0.0 0.00 0.00 0.00 77 1020.1
20260905215631 20 318 1.6 3.2 0.00 0.00 0.00 75 1020.2
20260905215127 20 313 3.2 3.2 0.00 0.00 0.00 75 1020.3
20260905214623 20 328 0.0 0.0 0.00 0.00 0.00 77 1020.3
20260905214118 20 327 1.6 3.2 0.00 0.00 0.00 78 1020.2
20260905213613 20 331 0.0 0.0 0.00 0.00 0.00 78 1020.1
20260905213108 20 329 0.0 0.0 0.00 0.00 0.00 77 1020.2
20260905212603 20 314 0.0 0.0 0.00 0.00 0.00 76 1020.2
20260905212103 20 334 0.0 0.0 0.00 0.00 0.00 77 1020.1
20260905211558 20 330 0.0 0.0 0.00 0.00 0.00 79 1020.1
20260905211053 20 330 0.0 0.0 0.00 0.00 0.00 79 1020.1
20260905210549 20 328 0.0 0.0 0.00 0.00 0.00 75 1020.1
20260905210044 20 323 1.6 1.6 0.00 0.00 0.00 78 1020.1
20260905205543 20 328 1.6 1.6 0.00 0.00 0.00 76 1019.9
20260905205043 20 329 0.0 0.0 0.00 0.00 0.00 78 1019.8
20260905204538 20 334 0.0 0.0 0.00 0.00 0.00 78 1019.7
20260905204033 20 318 0.0 0.0 0.00 0.00 0.00 79 1019.7
20260905203532 20 332 0.0 0.0 0.00 0.00 0.00 79 1019.8
20260905203028 20 323 4.8 6.4 0.00 0.00 0.00 77 1020.1
20260905202523 20 323 0.0 0.0 0.00 0.00 0.00 78 1020.1
20260905202019 20 317 0.0 0.0 0.00 0.00 0.00 78 1020.3
20260905201514 20 341 0.0 0.0 0.00 0.00 0.00 79 1020.3
20260905201014 20 317 0.0 1.6 0.00 0.00 0.00 79 1020.2
20260905200509 20 318 0.0 0.0 0.00 0.00 0.00 78 1020.1
20260905200009 21 336 0.0 0.0 0.00 0.00 0.00 75 1020.0
20260905195503 21 321 3.2 4.8 0.00 0.00 0.00 76 1020.2
20260905194958 21 328 1.6 1.6 0.00 0.00 0.00 75 1020.1
20260905194457 21 314 1.6 1.6 0.00 0.00 0.00 76 1020.0
20260905193952 21 319 0.0 0.0 0.00 0.00 0.00 76 1020.2
20260905193452 21 314 4.8 4.8 0.00 0.00 0.00 75 1020.1
20260905192948 21 330 0.0 0.0 0.00 0.00 0.00 76 1020.4
20260905192443 21 316 3.2 4.8 0.00 0.00 0.00 78 1020.4
20260905191938 21 310 0.0 0.0 0.00 0.00 0.00 77 1020.4